User: anonymous   Login
Location: Deer Path Park
(40.5570°N, 74.8450°W)
Time: 09:43:18
(UTC-04:00)
Language:

Iridium 49 - Orbit

View from above orbital plane
View from above orbital plane
View from above satellite
View from above satellite

Ground track
Ground track

The orbit data is extracted from the following two-line orbital elements,

1 25108U 97082E   17146.48358766 +.00000139 +00000-0 +42421-4 0  9998
2 25108 086.3963 264.4555 0002393 094.8322 311.2925 14.34218739017260
Epoch (UTC): 26 May 2017 11:36:21
Eccentricity: 0.0002393
inclination: 86.3963°
perigee height: 776 km
apogee height: 779 km
right ascension of ascending node: 264.4555°
argument of perigee: 94.8322°
revolutions per day: 14.34218739
mean anomaly at epoch: 311.2925°
orbit number at epoch: 1726

The dashed part of the orbit path shows where the satellite is in the earth's shadow,  

DLR